| time (UTC) | temp F | wind direction | speed knots | gust knots | rain 1hr in | rain 24hr in | rain mn in | humidity % | barometer mb |
| 20260507064329 | 58 | 341 | 6.1 | 9.6 | 0.00 | 0.00 | 0.00 | 77 | 1017.2 |
| 20260507063827 | 58 | 321 | 7.0 | 10.4 | 0.00 | 0.00 | 0.00 | 77 | 1017.2 |
| 20260507063326 | 58 | 339 | 6.1 | 10.4 | 0.00 | 0.00 | 0.00 | 78 | 1017.2 |
| 20260507062822 | 58 | 337 | 7.0 | 10.4 | 0.00 | 0.00 | 0.00 | 78 | 1017.2 |
| 20260507062320 | 58 | 323 | 7.8 | 10.4 | 0.00 | 0.00 | 0.00 | 78 | 1017.2 |
| 20260507061820 | 58 | 331 | 7.0 | 10.4 | 0.00 | 0.00 | 0.00 | 79 | 1017.2 |
| 20260507061316 | 58 | 326 | 7.0 | 10.4 | 0.00 | 0.00 | 0.00 | 79 | 1017.1 |
| 20260507060833 | 58 | 1 | 7.0 | 10.4 | 0.00 | 0.00 | 0.00 | 78 | 1017.1 |
| 20260507060351 | 58 | 336 | 7.0 | 11.3 | 0.00 | 0.00 | 0.00 | 79 | 1017.1 |
| 20260507055826 | 58 | 338 | 7.8 | 11.3 | 0.00 | 0.00 | 0.00 | 77 | 1017.0 |
| 20260507055324 | 58 | 334 | 6.1 | 11.3 | 0.00 | 0.00 | 0.00 | 78 | 1017.0 |
| 20260507054819 | 58 | 355 | 7.8 | 11.3 | 0.00 | 0.00 | 0.00 | 78 | 1017.0 |
| 20260507054337 | 57 | 338 | 7.8 | 11.3 | 0.00 | 0.00 | 0.00 | 79 | 1016.9 |
| 20260507053815 | 57 | 337 | 7.8 | 11.3 | 0.00 | 0.00 | 0.00 | 79 | 1016.9 |
| 20260507053351 | 58 | 324 | 7.8 | 12.2 | 0.00 | 0.00 | 0.00 | 80 | 1016.9 |
| 20260507052827 | 57 | 335 | 8.7 | 12.2 | 0.00 | 0.00 | 0.00 | 79 | 1016.9 |
| 20260507052323 | 57 | 4 | 7.8 | 11.3 | 0.00 | 0.00 | 0.00 | 80 | 1016.8 |
| 20260507051824 | 57 | 349 | 7.0 | 11.3 | 0.00 | 0.00 | 0.00 | 80 | 1016.8 |
| 20260507051322 | 57 | 328 | 6.1 | 9.6 | 0.00 | 0.00 | 0.00 | 81 | 1016.8 |
| 20260507050820 | 57 | 343 | 6.1 | 9.6 | 0.00 | 0.00 | 0.00 | 80 | 1016.8 |
| 20260507050341 | 57 | 352 | 6.1 | 11.3 | 0.00 | 0.00 | 0.00 | 80 | 1016.9 |
| 20260507045822 | 57 | 330 | 3.5 | 11.3 | 0.00 | 0.00 | 0.00 | 81 | 1016.8 |
| 20260507045321 | 57 | 320 | 4.3 | 10.4 | 0.00 | 0.00 | 0.00 | 80 | 1016.8 |
| 20260507044818 | 57 | 346 | 6.1 | 10.4 | 0.00 | 0.00 | 0.00 | 81 | 1016.8 |
| 20260507044333 | 57 | 333 | 5.2 | 9.6 | 0.00 | 0.00 | 0.00 | 81 | 1016.7 |
| 20260507043316 | 57 | 20 | 4.3 | 9.6 | 0.00 | 0.00 | 0.00 | 81 | 1016.8 |
| 20260507042831 | 57 | 345 | 4.3 | 10.4 | 0.00 | 0.00 | 0.00 | 81 | 1016.8 |
| 20260507042329 | 57 | 27 | 6.1 | 10.4 | 0.00 | 0.00 | 0.00 | 81 | 1016.9 |
| 20260507041847 | 57 | 346 | 5.2 | 11.3 | 0.00 | 0.00 | 0.00 | 81 | 1016.9 |
| 20260507041344 | 57 | 326 | 4.3 | 11.3 | 0.00 | 0.00 | 0.00 | 81 | 1016.9 |
| 20260507040819 | 58 | 3 | 5.2 | 10.4 | 0.00 | 0.00 | 0.00 | 81 | 1016.9 |
| 20260507040319 | 58 | 333 | 6.1 | 11.3 | 0.00 | 0.00 | 0.00 | 81 | 1017.0 |
| 20260507035830 | 58 | 319 | 4.3 | 11.3 | 0.00 | 0.00 | 0.00 | 81 | 1017.1 |
| 20260507035347 | 58 | 344 | 6.1 | 9.6 | 0.00 | 0.00 | 0.00 | 80 | 1017.2 |
| 20260507034825 | 58 | 333 | 5.2 | 12.2 | 0.00 | 0.00 | 0.00 | 80 | 1017.2 |
| 20260507034322 | 58 | 321 | 6.1 | 12.2 | 0.00 | 0.00 | 0.00 | 80 | 1017.3 |
| 20260507033821 | 58 | 313 | 6.1 | 13.0 | 0.00 | 0.00 | 0.00 | 81 | 1017.3 |
| 20260507033320 | 58 | 352 | 7.0 | 13.0 | 0.00 | 0.00 | 0.00 | 81 | 1017.3 |
| 20260507032817 | 58 | 29 | 6.1 | 12.2 | 0.00 | 0.00 | 0.00 | 81 | 1017.3 |
| 20260507032314 | 58 | 342 | 7.0 | 14.8 | 0.00 | 0.00 | 0.00 | 80 | 1017.3 |
| 20260507031824 | 58 | 319 | 6.1 | 14.8 | 0.00 | 0.00 | 0.00 | 80 | 1017.4 |
| 20260507031321 | 58 | 345 | 7.0 | 14.8 | 0.00 | 0.00 | 0.00 | 79 | 1017.4 |
| 20260507030818 | 58 | 358 | 9.6 | 14.8 | 0.00 | 0.00 | 0.00 | 80 | 1017.4 |
| 20260507030346 | 58 | 332 | 9.6 | 14.8 | 0.00 | 0.00 | 0.00 | 79 | 1017.5 |
| 20260507025830 | 58 | 334 | 9.6 | 13.0 | 0.00 | 0.00 | 0.00 | 79 | 1017.6 |
| 20260507025328 | 58 | 330 | 9.6 | 13.9 | 0.00 | 0.00 | 0.00 | 80 | 1017.6 |
| 20260507024825 | 58 | 351 | 8.7 | 12.2 | 0.00 | 0.00 | 0.00 | 81 | 1017.6 |
| 20260507024334 | 58 | 326 | 7.8 | 13.0 | 0.00 | 0.00 | 0.00 | 81 | 1017.6 |
| 20260507023830 | 58 | 338 | 7.0 | 13.0 | 0.00 | 0.00 | 0.00 | 80 | 1017.6 |
| 20260507023329 | 58 | 344 | 7.0 | 12.2 | 0.00 | 0.00 | 0.00 | 81 | 1017.7 |
| 20260507022825 | 58 | 345 | 7.0 | 12.2 | 0.00 | 0.00 | 0.00 | 80 | 1017.7 |
| 20260507022323 | 58 | 1 | 7.0 | 11.3 | 0.00 | 0.00 | 0.00 | 81 | 1017.7 |
| 20260507021843 | 58 | 333 | 6.1 | 9.6 | 0.00 | 0.00 | 0.00 | 81 | 1017.7 |
| 20260507021318 | 58 | 338 | 5.2 | 11.3 | 0.00 | 0.00 | 0.00 | 81 | 1017.7 |
| 20260507020836 | 58 | 352 | 7.0 | 12.2 | 0.00 | 0.00 | 0.00 | 82 | 1017.7 |
| 20260507020333 | 58 | 332 | 6.1 | 12.2 | 0.00 | 0.00 | 0.00 | 82 | 1017.8 |
| 20260507015831 | 58 | 331 | 6.1 | 12.2 | 0.00 | 0.00 | 0.00 | 82 | 1017.8 |
| 20260507015328 | 58 | 15 | 6.1 | 10.4 | 0.00 | 0.00 | 0.00 | 82 | 1017.7 |
| 20260507014825 | 58 | 345 | 6.1 | 12.2 | 0.00 | 0.00 | 0.00 | 82 | 1017.8 |
| 20260507014324 | 58 | 348 | 6.1 | 12.2 | 0.00 | 0.00 | 0.00 | 82 | 1017.8 |
| 20260507013842 | 58 | 360 | 6.1 | 11.3 | 0.00 | 0.00 | 0.00 | 82 | 1017.9 |
| 20260507013319 | 58 | 324 | 6.1 | 12.2 | 0.00 | 0.00 | 0.00 | 81 | 1017.9 |
| 20260507012813 | 58 | 27 | 6.1 | 12.2 | 0.00 | 0.00 | 0.00 | 81 | 1018.0 |
| 20260507012349 | 58 | 326 | 6.1 | 11.3 | 0.00 | 0.00 | 0.00 | 81 | 1018.0 |
| 20260507011826 | 58 | 334 | 5.2 | 10.4 | 0.00 | 0.00 | 0.00 | 81 | 1018.1 |
| 20260507011322 | 58 | 354 | 6.1 | 11.3 | 0.00 | 0.00 | 0.00 | 83 | 1018.1 |
| 20260507010841 | 58 | 340 | 5.2 | 11.3 | 0.00 | 0.00 | 0.00 | 81 | 1018.1 |
| 20260507010407 | 58 | 328 | 5.2 | 11.3 | 0.00 | 0.00 | 0.00 | 81 | 1018.1 |
| 20260507005827 | 58 | 312 | 7.0 | 12.2 | 0.00 | 0.00 | 0.00 | 80 | 1018.1 |
| 20260507005325 | 58 | 324 | 7.0 | 12.2 | 0.00 | 0.00 | 0.00 | 80 | 1018.1 |
| 20260507004820 | 58 | 346 | 5.2 | 9.6 | 0.00 | 0.00 | 0.00 | 80 | 1018.2 |
| 20260507004340 | 58 | 330 | 5.2 | 9.6 | 0.00 | 0.00 | 0.00 | 81 | 1018.3 |
| 20260507003831 | 58 | 2 | 4.3 | 9.6 | 0.00 | 0.00 | 0.00 | 81 | 1018.3 |
| 20260507003330 | 58 | 340 | 4.3 | 9.6 | 0.00 | 0.00 | 0.00 | 81 | 1018.3 |
| 20260507002827 | 58 | 346 | 3.5 | 8.7 | 0.00 | 0.00 | 0.00 | 82 | 1018.3 |
| 20260507002326 | 58 | 359 | 3.5 | 10.4 | 0.00 | 0.00 | 0.00 | 82 | 1018.3 |
| 20260507001823 | 58 | 17 | 7.0 | 11.3 | 0.00 | 0.00 | 0.00 | 81 | 1018.3 |
| 20260507001341 | 58 | 326 | 7.0 | 11.3 | 0.00 | 0.00 | 0.00 | 80 | 1018.4 |
| 20260507000835 | 58 | 347 | 7.0 | 12.2 | 0.00 | 0.00 | 0.00 | 81 | 1018.4 |
| 20260507000335 | 58 | 29 | 7.0 | 12.2 | 0.00 | 0.00 | 0.00 | 80 | 1018.4 |
| 20260506235850 | 58 | 48 | 8.7 | 11.3 | 0.00 | 0.00 | 0.00 | 80 | 1018.5 |
| 20260506235326 | 58 | 345 | 6.1 | 13.0 | 0.00 | 0.00 | 0.00 | 81 | 1018.5 |
| 20260506234821 | 58 | 323 | 6.1 | 13.0 | 0.00 | 0.00 | 0.00 | 80 | 1018.5 |
| 20260506234320 | 58 | 17 | 8.7 | 13.0 | 0.00 | 0.00 | 0.00 | 82 | 1018.5 |
| 20260506233818 | 58 | 335 | 7.0 | 11.3 | 0.00 | 0.00 | 0.00 | 81 | 1018.5 |
| 20260506233327 | 58 | 6 | 7.0 | 12.2 | 0.00 | 0.00 | 0.00 | 81 | 1018.5 |
| 20260506232824 | 58 | 9 | 7.0 | 13.0 | 0.00 | 0.00 | 0.00 | 81 | 1018.6 |
| 20260506232320 | 58 | 7 | 9.6 | 13.0 | 0.00 | 0.00 | 0.00 | 81 | 1018.6 |
| 20260506231818 | 58 | 5 | 8.7 | 12.2 | 0.00 | 0.00 | 0.00 | 81 | 1018.5 |
| 20260506231315 | 58 | 20 | 7.0 | 12.2 | 0.00 | 0.00 | 0.00 | 81 | 1018.6 |
| 20260506230812 | 58 | 11 | 6.1 | 11.3 | 0.00 | 0.00 | 0.00 | 81 | 1018.5 |
| 20260506230330 | 58 | 4 | 7.8 | 11.3 | 0.00 | 0.00 | 0.00 | 81 | 1018.5 |
| 20260506225820 | 58 | 327 | 6.1 | 13.0 | 0.00 | 0.00 | 0.00 | 82 | 1018.5 |
| 20260506225318 | 58 | 3 | 9.6 | 14.8 | 0.00 | 0.00 | 0.00 | 80 | 1018.5 |
| 20260506224814 | 58 | 340 | 7.8 | 14.8 | 0.00 | 0.00 | 0.00 | 80 | 1018.5 |
| 20260506224331 | 58 | 359 | 9.6 | 13.9 | 0.00 | 0.00 | 0.00 | 79 | 1018.5 |
| 20260506223848 | 59 | 332 | 6.1 | 12.2 | 0.00 | 0.00 | 0.00 | 81 | 1018.6 |
| 20260506223326 | 59 | 355 | 5.2 | 13.9 | 0.00 | 0.00 | 0.00 | 81 | 1018.7 |
| 20260506222821 | 59 | 354 | 8.7 | 13.9 | 0.00 | 0.00 | 0.00 | 80 | 1018.7 |
| 20260506222319 | 59 | 349 | 10.4 | 13.9 | 0.00 | 0.00 | 0.00 | 80 | 1018.7 |
| 20260506221818 | 58 | 352 | 9.6 | 13.9 | 0.00 | 0.00 | 0.00 | 79 | 1018.7 |
| 20260506221315 | 59 | 1 | 6.1 | 14.8 | 0.00 | 0.00 | 0.00 | 81 | 1018.8 |
| 20260506220834 | 59 | 14 | 8.7 | 15.6 | 0.00 | 0.00 | 0.00 | 80 | 1018.8 |
| 20260506220313 | 59 | 359 | 7.8 | 13.9 | 0.00 | 0.00 | 0.00 | 80 | 1018.8 |
| 20260506215838 | 59 | 30 | 6.1 | 14.8 | 0.00 | 0.00 | 0.00 | 80 | 1018.9 |
| 20260506215330 | 59 | 337 | 6.1 | 14.8 | 0.00 | 0.00 | 0.00 | 79 | 1018.8 |
| 20260506214827 | 59 | 352 | 7.0 | 13.9 | 0.00 | 0.00 | 0.00 | 79 | 1018.8 |
| 20260506214326 | 59 | 345 | 7.0 | 14.8 | 0.00 | 0.00 | 0.00 | 78 | 1018.9 |
| 20260506213824 | 59 | 8 | 7.0 | 14.8 | 0.00 | 0.00 | 0.00 | 80 | 1018.9 |
| 20260506213343 | 59 | 347 | 6.1 | 13.9 | 0.00 | 0.00 | 0.00 | 80 | 1019.0 |
| 20260506212819 | 59 | 345 | 5.2 | 13.9 | 0.00 | 0.00 | 0.00 | 80 | 1018.9 |
| 20260506212312 | 59 | 3 | 7.8 | 13.9 | 0.00 | 0.00 | 0.00 | 80 | 1018.9 |
| 20260506211822 | 59 | 360 | 6.1 | 13.9 | 0.00 | 0.00 | 0.00 | 80 | 1018.9 |
| 20260506211320 | 59 | 25 | 7.8 | 13.9 | 0.00 | 0.00 | 0.00 | 81 | 1019.0 |
| 20260506210817 | 59 | 43 | 5.2 | 13.0 | 0.00 | 0.00 | 0.00 | 80 | 1018.9 |
| 20260506210317 | 59 | 360 | 5.2 | 14.8 | 0.00 | 0.00 | 0.00 | 81 | 1018.9 |
| 20260506205814 | 59 | 18 | 10.4 | 14.8 | 0.00 | 0.00 | 0.00 | 80 | 1018.8 |
| 20260506205326 | 59 | 351 | 7.0 | 13.9 | 0.00 | 0.00 | 0.00 | 81 | 1018.8 |
| 20260506204824 | 59 | 6 | 7.0 | 15.6 | 0.00 | 0.00 | 0.00 | 81 | 1018.8 |
| 20260506204321 | 59 | 343 | 7.0 | 15.6 | 0.00 | 0.00 | 0.00 | 82 | 1018.7 |
| 20260506203839 | 59 | 25 | 7.0 | 14.8 | 0.00 | 0.00 | 0.00 | 82 | 1018.7 |
| 20260506203316 | 59 | 11 | 7.0 | 14.8 | 0.00 | 0.00 | 0.00 | 81 | 1018.7 |
| 20260506202812 | 59 | 335 | 7.0 | 15.6 | 0.00 | 0.00 | 0.00 | 81 | 1018.7 |
| 20260506202349 | 59 | 23 | 11.3 | 15.6 | 0.00 | 0.00 | 0.00 | 80 | 1018.7 |
| 20260506201824 | 59 | 28 | 7.8 | 14.8 | 0.00 | 0.00 | 0.00 | 80 | 1018.6 |
| 20260506201342 | 59 | 304 | 8.7 | 14.8 | 0.00 | 0.00 | 0.00 | 82 | 1018.7 |
| 20260506200818 | 59 | 359 | 10.4 | 14.8 | 0.00 | 0.00 | 0.00 | 82 | 1018.6 |
| 20260506200316 | 59 | 352 | 10.4 | 14.8 | 0.00 | 0.00 | 0.00 | 81 | 1018.6 |
| 20260506195839 | 59 | 359 | 9.6 | 13.9 | 0.00 | 0.00 | 0.00 | 81 | 1018.6 |
| 20260506195316 | 59 | 18 | 10.4 | 13.9 | 0.00 | 0.00 | 0.00 | 80 | 1018.6 |
| 20260506194831 | 59 | 347 | 7.0 | 15.6 | 0.00 | 0.00 | 0.00 | 80 | 1018.6 |
| 20260506194329 | 59 | 352 | 11.3 | 15.6 | 0.00 | 0.00 | 0.00 | 80 | 1018.6 |
| 20260506193827 | 59 | 356 | 10.4 | 15.6 | 0.00 | 0.00 | 0.00 | 80 | 1018.6 |
| 20260506193326 | 60 | 333 | 5.2 | 12.2 | 0.00 | 0.00 | 0.00 | 81 | 1018.6 |
| 20260506192823 | 60 | 23 | 7.0 | 12.2 | 0.00 | 0.00 | 0.00 | 80 | 1018.6 |
| 20260506192320 | 60 | 321 | 6.1 | 12.2 | 0.00 | 0.00 | 0.00 | 80 | 1018.6 |
| 20260506191818 | 60 | 317 | 6.1 | 14.8 | 0.00 | 0.00 | 0.00 | 79 | 1018.5 |
| 20260506191315 | 60 | 345 | 11.3 | 14.8 | 0.00 | 0.00 | 0.00 | 79 | 1018.5 |
| 20260506190813 | 60 | 25 | 7.8 | 13.9 | 0.00 | 0.00 | 0.00 | 78 | 1018.5 |
| 20260506190351 | 60 | 348 | 7.8 | 13.9 | 0.00 | 0.00 | 0.00 | 78 | 1018.5 |
| 20260506185822 | 61 | 17 | 8.7 | 13.0 | 0.00 | 0.00 | 0.00 | 77 | 1018.4 |
| 20260506185319 | 61 | 333 | 7.0 | 13.0 | 0.00 | 0.00 | 0.00 | 77 | 1018.4 |
| 20260506184836 | 61 | 5 | 8.7 | 13.0 | 0.00 | 0.00 | 0.00 | 75 | 1018.4 |
| 20260506184331 | 61 | 312 | 5.2 | 13.0 | 0.00 | 0.00 | 0.00 | 77 | 1018.4 |
| 20260506183829 | 61 | 9 | 7.0 | 13.9 | 0.00 | 0.00 | 0.00 | 77 | 1018.5 |
| 20260506183328 | 61 | 334 | 6.1 | 13.0 | 0.00 | 0.00 | 0.00 | 76 | 1018.5 |
| 20260506182845 | 61 | 19 | 7.8 | 13.9 | 0.00 | 0.00 | 0.00 | 77 | 1018.5 |
| 20260506182322 | 61 | 347 | 9.6 | 13.9 | 0.00 | 0.00 | 0.00 | 76 | 1018.5 |
| 20260506181840 | 61 | 344 | 9.6 | 14.8 | 0.00 | 0.00 | 0.00 | 76 | 1018.4 |
| 20260506181338 | 62 | 319 | 8.7 | 14.8 | 0.00 | 0.00 | 0.00 | 76 | 1018.4 |
| 20260506180834 | 62 | 340 | 5.2 | 14.8 | 0.00 | 0.00 | 0.00 | 77 | 1018.5 |
| 20260506180331 | 61 | 354 | 7.8 | 15.6 | 0.00 | 0.00 | 0.00 | 76 | 1018.5 |
| 20260506175848 | 61 | 330 | 8.7 | 13.9 | 0.00 | 0.00 | 0.00 | 78 | 1018.5 |
| 20260506175341 | 62 | 337 | 8.7 | 15.6 | 0.00 | 0.00 | 0.00 | 78 | 1018.6 |
| 20260506174818 | 62 | 321 | 9.6 | 15.6 | 0.00 | 0.00 | 0.00 | 77 | 1018.6 |
| 20260506174315 | 62 | 325 | 8.7 | 13.9 | 0.00 | 0.00 | 0.00 | 76 | 1018.6 |
| 20260506173813 | 62 | 3 | 8.7 | 14.8 | 0.00 | 0.00 | 0.00 | 76 | 1018.6 |
| 20260506173400 | 62 | 349 | 8.7 | 15.6 | 0.00 | 0.00 | 0.00 | 75 | 1018.6 |
| 20260506172824 | 62 | 340 | 9.6 | 15.6 | 0.00 | 0.00 | 0.00 | 74 | 1018.7 |
| 20260506172321 | 62 | 354 | 7.0 | 14.8 | 0.00 | 0.00 | 0.00 | 75 | 1018.7 |
| 20260506171818 | 62 | 313 | 8.7 | 14.8 | 0.00 | 0.00 | 0.00 | 76 | 1018.7 |
| 20260506171315 | 62 | 315 | 7.8 | 14.8 | 0.00 | 0.00 | 0.00 | 77 | 1018.7 |
| 20260506170814 | 62 | 347 | 7.8 | 14.8 | 0.00 | 0.00 | 0.00 | 76 | 1018.7 |
| 20260506170333 | 62 | 356 | 9.6 | 14.8 | 0.00 | 0.00 | 0.00 | 76 | 1018.7 |
| 20260506165830 | 62 | 323 | 8.7 | 14.8 | 0.00 | 0.00 | 0.00 | 74 | 1018.7 |
| 20260506165328 | 62 | 336 | 7.8 | 15.6 | 0.00 | 0.00 | 0.00 | 76 | 1018.8 |
| 20260506164826 | 62 | 333 | 10.4 | 14.8 | 0.00 | 0.00 | 0.00 | 75 | 1018.8 |
| 20260506164324 | 62 | 335 | 9.6 | 16.5 | 0.00 | 0.00 | 0.00 | 77 | 1018.9 |
| 20260506163822 | 62 | 331 | 12.2 | 16.5 | 0.00 | 0.00 | 0.00 | 77 | 1018.8 |
| 20260506163320 | 62 | 356 | 9.6 | 14.8 | 0.00 | 0.00 | 0.00 | 77 | 1018.8 |
| 20260506162836 | 62 | 345 | 9.6 | 16.5 | 0.00 | 0.00 | 0.00 | 76 | 1018.9 |
| 20260506162313 | 62 | 319 | 11.3 | 16.5 | 0.00 | 0.00 | 0.00 | 76 | 1018.9 |
| 20260506161829 | 62 | 311 | 8.7 | 15.6 | 0.00 | 0.00 | 0.00 | 77 | 1018.9 |
| 20260506161327 | 62 | 336 | 11.3 | 15.6 | 0.00 | 0.00 | 0.00 | 77 | 1019.0 |
| 20260506160824 | 62 | 345 | 8.7 | 16.5 | 0.00 | 0.00 | 0.00 | 76 | 1019.0 |
| 20260506155834 | 62 | 320 | 10.4 | 13.9 | 0.00 | 0.00 | 0.00 | 77 | 1019.0 |
| 20260506155346 | 62 | 333 | 8.7 | 13.9 | 0.00 | 0.00 | 0.00 | 76 | 1019.0 |
| 20260506154822 | 62 | 325 | 7.8 | 15.6 | 0.00 | 0.00 | 0.00 | 74 | 1019.0 |
| 20260506154320 | 62 | 340 | 9.6 | 15.6 | 0.00 | 0.00 | 0.00 | 76 | 1019.1 |
| 20260506153819 | 62 | 326 | 10.4 | 14.8 | 0.00 | 0.00 | 0.00 | 77 | 1019.1 |
| 20260506153338 | 62 | 342 | 10.4 | 14.8 | 0.00 | 0.00 | 0.00 | 78 | 1019.1 |
| 20260506152829 | 62 | 339 | 10.4 | 15.6 | 0.00 | 0.00 | 0.00 | 78 | 1019.1 |
| 20260506152327 | 62 | 349 | 11.3 | 14.8 | 0.00 | 0.00 | 0.00 | 77 | 1019.2 |
| 20260506151826 | 62 | 1 | 9.6 | 14.8 | 0.00 | 0.00 | 0.00 | 79 | 1019.3 |
| 20260506151324 | 62 | 354 | 11.3 | 16.5 | 0.00 | 0.00 | 0.00 | 76 | 1019.4 |
| 20260506150843 | 62 | 333 | 10.4 | 15.6 | 0.00 | 0.00 | 0.00 | 77 | 1019.4 |
| 20260506150341 | 62 | 340 | 10.4 | 15.6 | 0.00 | 0.00 | 0.00 | 78 | 1019.5 |
| 20260506145838 | 62 | 350 | 11.3 | 15.6 | 0.00 | 0.00 | 0.00 | 78 | 1019.5 |
| 20260506145330 | 62 | 347 | 11.3 | 14.8 | 0.00 | 0.00 | 0.00 | 77 | 1019.5 |
| 20260506144826 | 62 | 316 | 11.3 | 16.5 | 0.00 | 0.00 | 0.00 | 77 | 1019.7 |
| 20260506144324 | 62 | 339 | 11.3 | 16.5 | 0.00 | 0.00 | 0.00 | 77 | 1019.8 |
| 20260506143313 | 62 | 334 | 10.4 | 13.9 | 0.00 | 0.00 | 0.00 | 78 | 1019.9 |
| 20260506142851 | 62 | 342 | 11.3 | 13.9 | 0.00 | 0.00 | 0.00 | 79 | 1020.1 |
| 20260506142329 | 62 | 340 | 9.6 | 13.0 | 0.00 | 0.00 | 0.00 | 79 | 1020.0 |
| 20260506141825 | 62 | 335 | 10.4 | 13.9 | 0.00 | 0.00 | 0.00 | 80 | 1020.1 |
| 20260506141323 | 62 | 360 | 9.6 | 13.9 | 0.00 | 0.00 | 0.00 | 79 | 1020.0 |
| 20260506140819 | 62 | 333 | 10.4 | 13.9 | 0.00 | 0.00 | 0.00 | 81 | 1020.1 |
| 20260506140318 | 62 | 349 | 8.7 | 14.8 | 0.00 | 0.00 | 0.00 | 79 | 1020.1 |
| 20260506135815 | 61 | 353 | 9.6 | 13.9 | 0.00 | 0.00 | 0.00 | 79 | 1020.2 |
| 20260506135347 | 62 | 298 | 9.6 | 14.8 | 0.00 | 0.00 | 0.00 | 80 | 1020.3 |
| 20260506134845 | 62 | 330 | 9.6 | 14.8 | 0.00 | 0.00 | 0.00 | 79 | 1020.3 |
| 20260506134341 | 61 | 338 | 9.6 | 13.9 | 0.00 | 0.00 | 0.00 | 80 | 1020.2 |
| 20260506133837 | 61 | 331 | 9.6 | 13.9 | 0.00 | 0.00 | 0.00 | 79 | 1020.3 |
| 20260506133330 | 61 | 347 | 10.4 | 14.8 | 0.00 | 0.00 | 0.00 | 78 | 1020.3 |
| 20260506132845 | 61 | 323 | 9.6 | 14.8 | 0.00 | 0.00 | 0.00 | 78 | 1020.4 |
| 20260506132321 | 61 | 336 | 10.4 | 14.8 | 0.00 | 0.00 | 0.00 | 77 | 1020.5 |
| 20260506131819 | 61 | 330 | 11.3 | 14.8 | 0.00 | 0.00 | 0.00 | 79 | 1020.5 |
| 20260506131317 | 61 | 337 | 9.6 | 13.9 | 0.00 | 0.00 | 0.00 | 79 | 1020.6 |
| 20260506130815 | 61 | 341 | 11.3 | 15.6 | 0.00 | 0.00 | 0.00 | 79 | 1020.6 |
| 20260506130332 | 61 | 353 | 11.3 | 15.6 | 0.00 | 0.00 | 0.00 | 79 | 1020.6 |
| 20260506125831 | 61 | 339 | 10.4 | 15.6 | 0.00 | 0.00 | 0.00 | 80 | 1020.6 |
| 20260506125327 | 61 | 6 | 10.4 | 15.6 | 0.00 | 0.00 | 0.00 | 80 | 1020.7 |
| 20260506124826 | 61 | 338 | 11.3 | 14.8 | 0.00 | 0.00 | 0.00 | 81 | 1020.8 |
| 20260506124323 | 61 | 327 | 10.4 | 15.6 | 0.00 | 0.00 | 0.00 | 81 | 1020.7 |
| 20260506123814 | 61 | 333 | 9.6 | 15.6 | 0.00 | 0.00 | 0.00 | 81 | 1020.9 |
| 20260506123314 | 61 | 341 | 10.4 | 13.9 | 0.00 | 0.00 | 0.00 | 80 | 1021.0 |
| 20260506122828 | 61 | 331 | 10.4 | 15.6 | 0.00 | 0.00 | 0.00 | 81 | 1020.9 |
| 20260506122325 | 60 | 343 | 11.3 | 15.6 | 0.00 | 0.00 | 0.00 | 80 | 1020.9 |
| 20260506121822 | 60 | 352 | 10.4 | 14.8 | 0.00 | 0.00 | 0.00 | 82 | 1020.9 |
| 20260506121320 | 60 | 303 | 9.6 | 13.0 | 0.00 | 0.00 | 0.00 | 83 | 1021.0 |
| 20260506120818 | 60 | 336 | 8.7 | 14.8 | 0.00 | 0.00 | 0.00 | 84 | 1021.1 |
| 20260506120338 | 60 | 333 | 9.6 | 14.8 | 0.00 | 0.00 | 0.00 | 83 | 1021.1 |
| 20260506115814 | 60 | 334 | 10.4 | 14.8 | 0.00 | 0.00 | 0.00 | 80 | 1021.1 |
| 20260506115313 | 60 | 323 | 10.4 | 14.8 | 0.00 | 0.00 | 0.00 | 79 | 1021.2 |
| 20260506114848 | 60 | 316 | 10.4 | 14.8 | 0.00 | 0.00 | 0.00 | 82 | 1021.2 |
| 20260506114323 | 60 | 329 | 11.3 | 14.8 | 0.00 | 0.00 | 0.00 | 82 | 1021.2 |
| 20260506113836 | 60 | 359 | 10.4 | 14.8 | 0.00 | 0.00 | 0.00 | 82 | 1021.3 |
| 20260506113313 | 60 | 340 | 12.2 | 15.6 | 0.00 | 0.00 | 0.00 | 82 | 1021.4 |
| 20260506112830 | 60 | 333 | 11.3 | 15.6 | 0.00 | 0.00 | 0.00 | 81 | 1021.4 |
| 20260506112328 | 60 | 325 | 11.3 | 14.8 | 0.00 | 0.00 | 0.00 | 82 | 1021.3 |
| 20260506111824 | 60 | 341 | 10.4 | 15.6 | 0.00 | 0.00 | 0.00 | 83 | 1021.4 |
| 20260506111322 | 60 | 340 | 11.3 | 15.6 | 0.00 | 0.00 | 0.00 | 82 | 1021.4 |
| 20260506110819 | 59 | 334 | 9.6 | 14.8 | 0.00 | 0.00 | 0.00 | 84 | 1021.4 |
| 20260506110337 | 59 | 330 | 9.6 | 14.8 | 0.00 | 0.00 | 0.00 | 82 | 1021.4 |
| 20260506105817 | 59 | 322 | 10.4 | 13.9 | 0.00 | 0.00 | 0.00 | 83 | 1021.4 |
| 20260506105314 | 59 | 9 | 9.6 | 13.9 | 0.00 | 0.00 | 0.00 | 83 | 1021.5 |
| 20260506104837 | 59 | 335 | 9.6 | 13.9 | 0.00 | 0.00 | 0.00 | 83 | 1021.5 |
| 20260506104330 | 59 | 305 | 9.6 | 15.6 | 0.00 | 0.00 | 0.00 | 83 | 1021.5 |
| 20260506103829 | 59 | 5 | 9.6 | 14.8 | 0.00 | 0.00 | 0.00 | 83 | 1021.4 |
| 20260506103347 | 58 | 341 | 10.4 | 14.8 | 0.00 | 0.00 | 0.00 | 84 | 1021.5 |
| 20260506102823 | 58 | 336 | 9.6 | 14.8 | 0.00 | 0.00 | 0.00 | 84 | 1021.5 |
| 20260506102322 | 58 | 324 | 9.6 | 15.6 | 0.00 | 0.00 | 0.00 | 85 | 1021.6 |
| 20260506101815 | 58 | 7 | 10.4 | 15.6 | 0.00 | 0.00 | 0.00 | 86 | 1021.6 |
| 20260506101312 | 58 | 359 | 12.2 | 15.6 | 0.00 | 0.00 | 0.00 | 86 | 1021.6 |
| 20260506100831 | 58 | 323 | 9.6 | 15.6 | 0.00 | 0.00 | 0.00 | 86 | 1021.7 |
| 20260506100329 | 58 | 337 | 9.6 | 16.5 | 0.00 | 0.00 | 0.00 | 88 | 1021.7 |
| 20260506095828 | 58 | 332 | 11.3 | 17.4 | 0.00 | 0.00 | 0.00 | 86 | 1021.6 |
| 20260506095326 | 58 | 339 | 12.2 | 18.2 | 0.00 | 0.00 | 0.00 | 86 | 1021.6 |
| 20260506094824 | 58 | 335 | 13.9 | 18.2 | 0.00 | 0.00 | 0.00 | 87 | 1021.6 |
| 20260506094321 | 58 | 328 | 12.2 | 17.4 | 0.00 | 0.00 | 0.00 | 87 | 1021.5 |
| 20260506093819 | 58 | 342 | 13.0 | 17.4 | 0.00 | 0.00 | 0.00 | 88 | 1021.5 |
| 20260506093318 | 57 | 334 | 13.9 | 18.2 | 0.00 | 0.00 | 0.00 | 87 | 1021.5 |
| 20260506092817 | 58 | 341 | 12.2 | 19.1 | 0.00 | 0.00 | 0.00 | 88 | 1021.5 |
| 20260506092314 | 57 | 327 | 13.0 | 20.0 | 0.00 | 0.00 | 0.00 | 86 | 1021.4 |
| 20260506091812 | 57 | 327 | 13.9 | 20.0 | 0.00 | 0.00 | 0.00 | 87 | 1021.3 |
| 20260506091329 | 58 | 343 | 13.0 | 19.1 | 0.00 | 0.00 | 0.00 | 88 | 1021.4 |
| 20260506090843 | 58 | 330 | 13.9 | 18.2 | 0.00 | 0.00 | 0.00 | 88 | 1021.3 |
| 20260506090341 | 58 | 347 | 12.2 | 18.2 | 0.00 | 0.00 | 0.00 | 87 | 1021.3 |
| 20260506085823 | 58 | 311 | 12.2 | 16.5 | 0.00 | 0.00 | 0.00 | 87 | 1021.4 |
| 20260506085320 | 58 | 337 | 10.4 | 16.5 | 0.00 | 0.00 | 0.00 | 87 | 1021.4 |
| 20260506084837 | 58 | 330 | 9.6 | 13.9 | 0.00 | 0.00 | 0.00 | 86 | 1021.4 |
| 20260506084315 | 58 | 11 | 8.7 | 13.9 | 0.00 | 0.00 | 0.00 | 87 | 1021.3 |
| 20260506083832 | 59 | 334 | 9.6 | 13.9 | 0.00 | 0.00 | 0.00 | 87 | 1021.3 |
| 20260506083329 | 59 | 345 | 8.7 | 13.0 | 0.00 | 0.00 | 0.00 | 84 | 1021.3 |
| 20260506082848 | 59 | 337 | 8.7 | 13.0 | 0.00 | 0.00 | 0.00 | 83 | 1021.3 |
| 20260506082325 | 59 | 335 | 5.2 | 7.8 | 0.00 | 0.00 | 0.00 | 83 | 1021.3 |
| 20260506081825 | 59 | 330 | 4.3 | 7.0 | 0.00 | 0.00 | 0.00 | 84 | 1021.3 |
| 20260506081321 | 59 | 336 | 5.2 | 7.0 | 0.00 | 0.00 | 0.00 | 82 | 1021.3 |
| 20260506080819 | 59 | 344 | 5.2 | 7.0 | 0.00 | 0.00 | 0.00 | 82 | 1021.3 |
| 20260506080338 | 60 | 345 | 4.3 | 7.8 | 0.00 | 0.00 | 0.00 | 82 | 1021.4 |
| 20260506073344 | 59 | 350 | 6.1 | 9.6 | 0.00 | 0.00 | 0.00 | 82 | 1021.2 |
| 20260506072325 | 59 | 328 | 7.8 | 10.4 | 0.00 | 0.00 | 0.00 | 82 | 1021.3 |
| 20260506071824 | 59 | 352 | 7.0 | 10.4 | 0.00 | 0.00 | 0.00 | 82 | 1021.3 |
| 20260506071322 | 59 | 17 | 7.8 | 9.6 | 0.00 | 0.00 | 0.00 | 81 | 1021.3 |
| 20260506070820 | 59 | 354 | 6.1 | 9.6 | 0.00 | 0.00 | 0.00 | 81 | 1021.2 |
| 20260506070319 | 59 | 9 | 3.5 | 9.6 | 0.00 | 0.00 | 0.00 | 81 | 1021.2 |